Year,Month,Day,Hour,Minute,Value (Times are PST for temperature in C)
2013,03,27,00,00,5.70
2013,03,27,00,01,5.70
2013,03,27,00,02,5.70
2013,03,27,00,03,5.70
2013,03,27,00,04,5.70
2013,03,27,00,05,5.70
2013,03,27,00,06,5.70
2013,03,27,00,07,5.70
2013,03,27,00,08,5.70
2013,03,27,00,09,5.70
2013,03,27,00,10,5.70
2013,03,27,00,11,5.70
2013,03,27,00,12,5.70
2013,03,27,00,13,5.80
2013,03,27,00,14,5.90
2013,03,27,00,15,6.00
2013,03,27,00,16,6.00
2013,03,27,00,17,6.00
2013,03,27,00,18,6.00
2013,03,27,00,19,6.00
2013,03,27,00,20,6.00
2013,03,27,00,21,6.00
2013,03,27,00,22,6.00
2013,03,27,00,23,6.00
2013,03,27,00,24,6.00
2013,03,27,00,25,6.00
2013,03,27,00,26,6.00
2013,03,27,00,27,6.00
2013,03,27,00,28,6.00
2013,03,27,00,29,5.90
2013,03,27,00,30,5.90
2013,03,27,00,31,5.90
2013,03,27,00,32,5.90
2013,03,27,00,33,5.90
2013,03,27,00,34,5.90
2013,03,27,00,35,5.90
2013,03,27,00,36,5.90
2013,03,27,00,37,5.90
2013,03,27,00,38,5.80
2013,03,27,00,39,5.80
2013,03,27,00,40,5.80
2013,03,27,00,41,5.80
2013,03,27,00,42,5.80
2013,03,27,00,43,5.80
2013,03,27,00,44,5.80
2013,03,27,00,45,5.80
2013,03,27,00,46,5.70
2013,03,27,00,47,5.70
2013,03,27,00,48,5.80
2013,03,27,00,49,5.80
2013,03,27,00,50,5.80
2013,03,27,00,51,5.80
2013,03,27,00,52,5.80
2013,03,27,00,53,5.80
2013,03,27,00,54,5.80
2013,03,27,00,55,5.80
2013,03,27,00,56,5.80
2013,03,27,00,57,5.80
2013,03,27,00,58,5.80
2013,03,27,00,59,5.80
2013,03,27,01,00,5.80
2013,03,27,01,01,5.80
2013,03,27,01,02,5.80
2013,03,27,01,03,5.80
2013,03,27,01,04,5.80
2013,03,27,01,05,5.80
2013,03,27,01,06,5.70
2013,03,27,01,07,5.70
2013,03,27,01,08,5.70
2013,03,27,01,09,5.70
2013,03,27,01,10,5.70
2013,03,27,01,11,5.70
2013,03,27,01,12,5.70
2013,03,27,01,13,5.70
2013,03,27,01,14,5.70
2013,03,27,01,15,5.70
2013,03,27,01,16,5.70
2013,03,27,01,17,5.70
2013,03,27,01,18,5.70
2013,03,27,01,19,5.80
2013,03,27,01,20,5.80
2013,03,27,01,21,5.90
2013,03,27,01,22,5.90
2013,03,27,01,23,5.90
2013,03,27,01,24,5.90
2013,03,27,01,25,5.90
2013,03,27,01,26,5.90
2013,03,27,01,27,6.00
2013,03,27,01,28,6.00
2013,03,27,01,29,6.00
2013,03,27,01,30,6.00
2013,03,27,01,31,6.00
2013,03,27,01,32,6.10
2013,03,27,01,33,6.10
2013,03,27,01,34,6.20
2013,03,27,01,35,6.20
2013,03,27,01,36,6.20
2013,03,27,01,37,6.20
2013,03,27,01,38,6.30
2013,03,27,01,39,6.30
2013,03,27,01,40,6.40
2013,03,27,01,41,6.40
2013,03,27,01,42,6.40
2013,03,27,01,43,6.50
2013,03,27,01,44,6.60
2013,03,27,01,45,6.60
2013,03,27,01,46,6.70
2013,03,27,01,47,6.70
2013,03,27,01,48,6.70
2013,03,27,01,49,6.70
2013,03,27,01,50,6.70
2013,03,27,01,51,6.70
2013,03,27,01,52,6.70
2013,03,27,01,53,6.70
2013,03,27,01,54,6.60
2013,03,27,01,55,6.60
2013,03,27,01,56,6.60
2013,03,27,01,57,6.60
2013,03,27,01,58,6.60
2013,03,27,01,59,6.50
2013,03,27,02,00,6.40
2013,03,27,02,01,6.40
2013,03,27,02,02,6.40
2013,03,27,02,03,6.40
2013,03,27,02,04,6.40
2013,03,27,02,05,6.40
2013,03,27,02,06,6.40
2013,03,27,02,07,6.40
2013,03,27,02,08,6.40
2013,03,27,02,09,6.40
2013,03,27,02,10,6.30
2013,03,27,02,11,6.30
2013,03,27,02,12,6.30
2013,03,27,02,13,6.30
2013,03,27,02,14,6.30
2013,03,27,02,15,6.30
2013,03,27,02,16,6.30
2013,03,27,02,17,6.30
2013,03,27,02,18,6.30
2013,03,27,02,19,6.20
2013,03,27,02,20,6.20
2013,03,27,02,21,6.20
2013,03,27,02,22,6.20
2013,03,27,02,23,6.30
2013,03,27,02,24,6.30
2013,03,27,02,25,6.30
2013,03,27,02,26,6.20
2013,03,27,02,27,6.20
2013,03,27,02,28,6.20
2013,03,27,02,29,6.20
2013,03,27,02,30,6.20
2013,03,27,02,31,6.20
2013,03,27,02,32,6.20
2013,03,27,02,33,6.20
2013,03,27,02,34,6.20
2013,03,27,02,35,6.20
2013,03,27,02,36,6.20
2013,03,27,02,37,6.20
2013,03,27,02,38,6.20
2013,03,27,02,39,6.20
2013,03,27,02,40,6.20
2013,03,27,02,41,6.20
2013,03,27,02,42,6.20
2013,03,27,02,43,6.30
2013,03,27,02,44,6.30
2013,03,27,02,45,6.40
2013,03,27,02,46,6.40
2013,03,27,02,47,6.40
2013,03,27,02,48,6.40
2013,03,27,02,49,6.40
2013,03,27,02,50,6.50
2013,03,27,02,51,6.60
2013,03,27,02,52,6.60
2013,03,27,02,53,6.70
2013,03,27,02,54,6.70
2013,03,27,02,55,6.80
2013,03,27,02,56,6.80
2013,03,27,02,57,6.80
2013,03,27,02,58,6.80
2013,03,27,02,59,6.80
2013,03,27,03,00,6.90
2013,03,27,03,01,6.90
2013,03,27,03,02,6.90
2013,03,27,03,03,7.00
2013,03,27,03,04,7.00
2013,03,27,03,05,7.00
2013,03,27,03,06,7.00
2013,03,27,03,07,7.00
2013,03,27,03,08,7.10
2013,03,27,03,09,7.10
2013,03,27,03,10,7.10
2013,03,27,03,11,7.10
2013,03,27,03,12,7.20
2013,03,27,03,13,7.20
2013,03,27,03,14,7.20
2013,03,27,03,15,7.30
2013,03,27,03,16,7.30
2013,03,27,03,17,7.30
2013,03,27,03,18,7.30
2013,03,27,03,19,7.30
2013,03,27,03,20,7.30
2013,03,27,03,21,7.30
2013,03,27,03,22,7.30
2013,03,27,03,23,7.30
2013,03,27,03,24,7.20
2013,03,27,03,25,7.20
2013,03,27,03,26,7.20
2013,03,27,03,27,7.10
2013,03,27,03,28,7.10
2013,03,27,03,29,7.00
2013,03,27,03,30,7.00
2013,03,27,03,31,7.00
2013,03,27,03,32,6.90
2013,03,27,03,33,6.90
2013,03,27,03,34,6.90
2013,03,27,03,35,6.90
2013,03,27,03,36,6.90
2013,03,27,03,37,6.90
2013,03,27,03,38,6.90
2013,03,27,03,39,6.90
2013,03,27,03,40,6.90
2013,03,27,03,41,6.90
2013,03,27,03,42,7.00
2013,03,27,03,43,7.00
2013,03,27,03,44,7.00
2013,03,27,03,45,7.00
2013,03,27,03,46,6.90
2013,03,27,03,47,6.90
2013,03,27,03,48,6.90
2013,03,27,03,49,6.80
2013,03,27,03,50,6.80
2013,03,27,03,51,6.80
2013,03,27,03,52,6.80
2013,03,27,03,53,6.70
2013,03,27,03,54,6.70
2013,03,27,03,55,6.70
2013,03,27,03,56,6.70
2013,03,27,03,57,6.60
2013,03,27,03,58,6.60
2013,03,27,03,59,6.60
2013,03,27,04,00,6.60
2013,03,27,04,01,6.60
2013,03,27,04,02,6.60
2013,03,27,04,03,6.60
2013,03,27,04,04,6.60
2013,03,27,04,05,6.60
2013,03,27,04,06,6.60
2013,03,27,04,07,6.60
2013,03,27,04,08,6.60
2013,03,27,04,09,6.60
2013,03,27,04,10,6.60
2013,03,27,04,11,6.60
2013,03,27,04,12,6.60
2013,03,27,04,13,6.60
2013,03,27,04,14,6.60
2013,03,27,04,15,6.60
2013,03,27,04,16,6.60
2013,03,27,04,17,6.60
2013,03,27,04,18,6.60
2013,03,27,04,19,6.60
2013,03,27,04,20,6.60
2013,03,27,04,21,6.60
2013,03,27,04,22,6.60
2013,03,27,04,23,6.60
2013,03,27,04,24,6.60
2013,03,27,04,25,6.60
2013,03,27,04,26,6.60
2013,03,27,04,27,6.60
2013,03,27,04,28,6.60
2013,03,27,04,29,6.60
2013,03,27,04,30,6.60
2013,03,27,04,31,6.60
2013,03,27,04,32,6.60
2013,03,27,04,33,6.60
2013,03,27,04,34,6.60
2013,03,27,04,35,6.60
2013,03,27,04,36,6.60
2013,03,27,04,37,6.60
2013,03,27,04,38,6.60
2013,03,27,04,39,6.60
2013,03,27,04,40,6.60
2013,03,27,04,41,6.60
2013,03,27,04,42,6.60
2013,03,27,04,43,6.60
2013,03,27,04,44,6.50
2013,03,27,04,45,6.40
2013,03,27,04,46,6.40
2013,03,27,04,47,6.40
2013,03,27,04,48,6.40
2013,03,27,04,49,6.40
2013,03,27,04,50,6.40
2013,03,27,04,51,6.40
2013,03,27,04,52,6.40
2013,03,27,04,53,6.30
2013,03,27,04,54,6.30
2013,03,27,04,55,6.30
2013,03,27,04,56,6.30
2013,03,27,04,57,6.30
2013,03,27,04,58,6.20
2013,03,27,04,59,6.20
2013,03,27,05,00,6.20
2013,03,27,05,01,6.20
2013,03,27,05,02,6.20
2013,03,27,05,03,6.20
2013,03,27,05,04,6.10
2013,03,27,05,05,6.10
2013,03,27,05,06,6.10
2013,03,27,05,07,6.00
2013,03,27,05,08,6.00
2013,03,27,05,09,6.00
2013,03,27,05,10,6.00
2013,03,27,05,11,6.00
2013,03,27,05,12,5.90
2013,03,27,05,13,5.90
2013,03,27,05,14,5.90
2013,03,27,05,15,5.90
2013,03,27,05,16,5.80
2013,03,27,05,17,5.80
2013,03,27,05,18,5.80
2013,03,27,05,19,5.80
2013,03,27,05,20,5.80
2013,03,27,05,21,5.80
2013,03,27,05,22,5.80
2013,03,27,05,23,5.80
2013,03,27,05,24,5.70
2013,03,27,05,25,5.70
2013,03,27,05,26,5.70
2013,03,27,05,27,5.70
2013,03,27,05,28,5.70
2013,03,27,05,29,5.70
2013,03,27,05,30,5.70
2013,03,27,05,31,5.70
2013,03,27,05,32,5.70
2013,03,27,05,33,5.70
2013,03,27,05,34,5.60
2013,03,27,05,35,5.60
2013,03,27,05,36,5.50
2013,03,27,05,37,5.50
2013,03,27,05,38,5.40
2013,03,27,05,39,5.30
2013,03,27,05,40,5.30
2013,03,27,05,41,5.30
2013,03,27,05,42,5.20
2013,03,27,05,43,5.20
2013,03,27,05,44,5.20
2013,03,27,05,45,5.10
2013,03,27,05,46,5.10
2013,03,27,05,47,5.10
2013,03,27,05,48,5.10
2013,03,27,05,49,5.10
2013,03,27,05,50,5.10
2013,03,27,05,51,5.10
2013,03,27,05,52,5.10
2013,03,27,05,53,5.10
2013,03,27,05,54,5.10
2013,03,27,05,55,5.10
2013,03,27,05,56,5.10
2013,03,27,05,57,5.10
2013,03,27,05,58,5.00
2013,03,27,05,59,4.90
2013,03,27,06,00,4.90
2013,03,27,06,01,4.90
2013,03,27,06,02,4.90
2013,03,27,06,03,4.90
2013,03,27,06,04,4.90
2013,03,27,06,05,4.90
2013,03,27,06,06,4.90
2013,03,27,06,07,4.90
2013,03,27,06,08,4.90
2013,03,27,06,09,4.90
2013,03,27,06,10,4.90
2013,03,27,06,11,4.90
2013,03,27,06,12,4.90
2013,03,27,06,13,4.90
2013,03,27,06,14,4.90
2013,03,27,06,15,4.90
2013,03,27,06,16,4.90
2013,03,27,06,17,4.90
2013,03,27,06,18,5.00
2013,03,27,06,19,5.10
2013,03,27,06,20,5.10
2013,03,27,06,21,5.10
2013,03,27,06,22,5.20
2013,03,27,06,23,5.30
2013,03,27,06,24,5.30
2013,03,27,06,25,5.40
2013,03,27,06,26,5.50
2013,03,27,06,27,5.60
2013,03,27,06,28,5.60
2013,03,27,06,29,5.70
2013,03,27,06,30,5.70
2013,03,27,06,31,5.70
2013,03,27,06,32,5.70
2013,03,27,06,33,5.80
2013,03,27,06,34,5.80
2013,03,27,06,35,5.80
2013,03,27,06,36,5.80
2013,03,27,06,37,5.80
2013,03,27,06,38,5.80
2013,03,27,06,39,5.90
2013,03,27,06,40,5.90
2013,03,27,06,41,5.90
2013,03,27,06,42,5.90
2013,03,27,06,43,6.00
2013,03,27,06,44,6.00
2013,03,27,06,45,6.10
2013,03,27,06,46,6.10
2013,03,27,06,47,6.10
2013,03,27,06,48,6.10
2013,03,27,06,49,6.10
2013,03,27,06,50,6.10
2013,03,27,06,51,6.10
2013,03,27,06,52,6.10
2013,03,27,06,53,6.20
2013,03,27,06,54,6.20
2013,03,27,06,55,6.20
2013,03,27,06,56,6.20
2013,03,27,06,57,6.20
2013,03,27,06,58,6.10
2013,03,27,06,59,6.10
2013,03,27,07,00,6.10
2013,03,27,07,01,6.10
2013,03,27,07,02,6.10
2013,03,27,07,03,6.00
2013,03,27,07,04,6.00
2013,03,27,07,05,6.00
2013,03,27,07,06,6.00
2013,03,27,07,07,5.90
2013,03,27,07,08,5.90
2013,03,27,07,09,5.80
2013,03,27,07,10,5.70
2013,03,27,07,11,5.60
2013,03,27,07,12,5.60
2013,03,27,07,13,5.50
2013,03,27,07,14,5.50
2013,03,27,07,15,5.40
2013,03,27,07,16,5.40
2013,03,27,07,17,5.30
2013,03,27,07,18,5.30
2013,03,27,07,19,5.30
2013,03,27,07,20,5.30
2013,03,27,07,21,5.30
2013,03,27,07,22,5.20
2013,03,27,07,23,5.20
2013,03,27,07,24,5.20
2013,03,27,07,25,5.20
2013,03,27,07,26,5.20
2013,03,27,07,27,5.20
2013,03,27,07,28,5.20
2013,03,27,07,29,5.20
2013,03,27,07,30,5.20
2013,03,27,07,31,5.30
2013,03,27,07,32,5.30
2013,03,27,07,33,5.30
2013,03,27,07,34,5.30
2013,03,27,07,35,5.30
2013,03,27,07,36,5.30
2013,03,27,07,37,5.30
2013,03,27,07,38,5.30
2013,03,27,07,39,5.30
2013,03,27,07,40,5.30
2013,03,27,07,41,5.30
2013,03,27,07,42,5.40
2013,03,27,07,43,5.40
2013,03,27,07,44,5.40
2013,03,27,07,45,5.40
2013,03,27,07,46,5.50
2013,03,27,07,47,5.50
2013,03,27,07,48,5.50
2013,03,27,07,49,5.60
2013,03,27,07,50,5.60
2013,03,27,07,51,5.60
2013,03,27,07,52,5.70
2013,03,27,07,53,5.70
2013,03,27,07,54,5.70
2013,03,27,07,55,5.70
2013,03,27,07,56,5.70
2013,03,27,07,57,5.80
2013,03,27,07,58,5.80
2013,03,27,07,59,5.80
2013,03,27,08,00,5.80
2013,03,27,08,01,5.90
2013,03,27,08,02,5.90
2013,03,27,08,03,5.90
2013,03,27,08,04,5.90
2013,03,27,08,05,5.90
2013,03,27,08,06,6.00
2013,03,27,08,07,6.00
2013,03,27,08,08,6.00
2013,03,27,08,09,6.00
2013,03,27,08,10,6.00
2013,03,27,08,11,6.00
2013,03,27,08,12,6.10
2013,03,27,08,13,6.10
2013,03,27,08,14,6.10
2013,03,27,08,15,6.20
2013,03,27,08,16,6.20
2013,03,27,08,17,6.20
2013,03,27,08,18,6.20
2013,03,27,08,19,6.20
2013,03,27,08,20,6.20
2013,03,27,08,21,6.30
2013,03,27,08,22,6.30
2013,03,27,08,23,6.30
2013,03,27,08,24,6.40
2013,03,27,08,25,6.40
2013,03,27,08,26,6.40
2013,03,27,08,27,6.50
2013,03,27,08,28,6.60
2013,03,27,08,29,6.60
2013,03,27,08,30,6.60
2013,03,27,08,31,6.60
2013,03,27,08,32,6.60
2013,03,27,08,33,6.70
2013,03,27,08,34,6.70
2013,03,27,08,35,6.70
2013,03,27,08,36,6.80
2013,03,27,08,37,6.80
2013,03,27,08,38,6.80
2013,03,27,08,39,6.80
2013,03,27,08,40,6.80
2013,03,27,08,41,6.80
2013,03,27,08,42,6.80
2013,03,27,08,43,6.90
2013,03,27,08,44,6.90
2013,03,27,08,45,6.90
2013,03,27,08,46,7.00
2013,03,27,08,47,7.00
2013,03,27,08,48,7.00
2013,03,27,08,49,7.10
2013,03,27,08,50,7.10
2013,03,27,08,51,7.20
2013,03,27,08,52,7.20
2013,03,27,08,53,7.30
2013,03,27,08,54,7.30
2013,03,27,08,55,7.30
2013,03,27,08,56,7.30
2013,03,27,08,57,7.30
2013,03,27,08,58,7.30
2013,03,27,08,59,7.40
2013,03,27,09,00,7.40
2013,03,27,09,01,7.50
2013,03,27,09,02,7.50
2013,03,27,09,03,7.60
2013,03,27,09,04,7.60
2013,03,27,09,05,7.60
2013,03,27,09,06,7.70
2013,03,27,09,07,7.70
2013,03,27,09,08,7.80
2013,03,27,09,09,7.80
2013,03,27,09,10,7.80
2013,03,27,09,11,7.80
2013,03,27,09,12,7.90
2013,03,27,09,13,7.90
2013,03,27,09,14,7.90
2013,03,27,09,15,7.90
2013,03,27,09,16,8.00
2013,03,27,09,17,8.00
2013,03,27,09,18,8.00
2013,03,27,09,19,8.00
2013,03,27,09,20,8.10
2013,03,27,09,21,8.10
2013,03,27,09,22,8.20
2013,03,27,09,23,8.20
2013,03,27,09,24,8.20
2013,03,27,09,25,8.20
2013,03,27,09,26,8.30
2013,03,27,09,27,8.30
2013,03,27,09,28,8.30
2013,03,27,09,29,8.40
2013,03,27,09,30,8.40
2013,03,27,09,31,8.50
2013,03,27,09,32,8.50
2013,03,27,09,33,8.50
2013,03,27,09,34,8.50
2013,03,27,09,35,8.50
2013,03,27,09,36,8.60
2013,03,27,09,37,8.60
2013,03,27,09,38,8.60
2013,03,27,09,39,8.60
2013,03,27,09,40,8.70
2013,03,27,09,41,8.70
2013,03,27,09,42,8.70
2013,03,27,09,43,8.70
2013,03,27,09,44,8.70
2013,03,27,09,45,8.70
2013,03,27,09,46,8.70
2013,03,27,09,47,8.70
2013,03,27,09,48,8.70
2013,03,27,09,49,8.70
2013,03,27,09,50,8.70
2013,03,27,09,51,8.70
2013,03,27,09,52,8.70
2013,03,27,09,53,8.70
2013,03,27,09,54,8.70
2013,03,27,09,55,8.70
2013,03,27,09,56,8.70
2013,03,27,09,57,8.70
2013,03,27,09,58,8.70
2013,03,27,09,59,8.80
2013,03,27,10,00,8.80
2013,03,27,10,01,8.80
2013,03,27,10,02,8.80
2013,03,27,10,03,8.80
2013,03,27,10,04,8.80
2013,03,27,10,05,8.90
2013,03,27,10,06,8.90
2013,03,27,10,07,8.90
2013,03,27,10,08,9.00
2013,03,27,10,09,9.00
2013,03,27,10,10,9.00
2013,03,27,10,11,9.10
2013,03,27,10,12,9.10
2013,03,27,10,13,9.10
2013,03,27,10,14,9.20
2013,03,27,10,15,9.20
2013,03,27,10,16,9.20
2013,03,27,10,17,9.20
2013,03,27,10,18,9.20
2013,03,27,10,19,9.30
2013,03,27,10,20,9.30
2013,03,27,10,21,9.40
2013,03,27,10,22,9.40
2013,03,27,10,23,9.50
2013,03,27,10,24,9.60
2013,03,27,10,25,9.60
2013,03,27,10,26,9.70
2013,03,27,10,27,9.70
2013,03,27,10,28,9.70
2013,03,27,10,29,9.80
2013,03,27,10,30,9.90
2013,03,27,10,31,9.90
2013,03,27,10,32,10.00
2013,03,27,10,33,10.10
2013,03,27,10,34,10.20
2013,03,27,10,35,10.40
2013,03,27,10,36,10.40
2013,03,27,10,37,10.50
2013,03,27,10,38,10.60
2013,03,27,10,39,10.70
2013,03,27,10,40,10.80
2013,03,27,10,41,10.90
2013,03,27,10,42,10.90
2013,03,27,10,43,11.00
2013,03,27,10,44,11.10
2013,03,27,10,45,11.10
2013,03,27,10,46,11.10
2013,03,27,10,47,11.10
2013,03,27,10,48,11.10
2013,03,27,10,49,11.20
2013,03,27,10,50,11.10
2013,03,27,10,51,11.10
2013,03,27,10,52,11.10
2013,03,27,10,53,11.10
2013,03,27,10,54,11.00
2013,03,27,10,55,10.90
2013,03,27,10,56,10.90
2013,03,27,10,57,10.90
2013,03,27,10,58,10.90
2013,03,27,10,59,10.90
2013,03,27,11,00,11.00
2013,03,27,11,01,11.10
2013,03,27,11,02,11.10
2013,03,27,11,03,11.10
2013,03,27,11,04,11.10
2013,03,27,11,05,11.10
2013,03,27,11,06,11.20
2013,03,27,11,07,11.20
2013,03,27,11,08,11.20
2013,03,27,11,09,11.20
2013,03,27,11,10,11.20
2013,03,27,11,11,11.20
2013,03,27,11,12,11.20
2013,03,27,11,13,11.20
2013,03,27,11,14,11.30
2013,03,27,11,15,11.30
2013,03,27,11,16,11.30
2013,03,27,11,17,11.30
2013,03,27,11,18,11.30
2013,03,27,11,19,11.30
2013,03,27,11,20,11.30
2013,03,27,11,21,11.30
2013,03,27,11,22,11.20
2013,03,27,11,23,11.20
2013,03,27,11,24,11.30
2013,03,27,11,25,11.40
2013,03,27,11,26,11.50
2013,03,27,11,27,11.60
2013,03,27,11,28,11.60
2013,03,27,11,29,11.60
2013,03,27,11,30,11.70
2013,03,27,11,31,11.80
2013,03,27,11,32,11.80
2013,03,27,11,33,11.80
2013,03,27,11,34,11.90
2013,03,27,11,35,12.00
2013,03,27,11,36,12.10
2013,03,27,11,37,12.10
2013,03,27,11,38,12.00
2013,03,27,11,39,12.00
2013,03,27,11,40,11.90
2013,03,27,11,41,12.00
2013,03,27,11,42,12.00
2013,03,27,11,43,12.00
2013,03,27,11,44,12.00
2013,03,27,11,45,12.10
2013,03,27,11,46,12.20
2013,03,27,11,47,12.30
2013,03,27,11,48,12.30
2013,03,27,11,49,12.30
2013,03,27,11,50,12.40
2013,03,27,11,51,12.50
2013,03,27,11,52,12.60
2013,03,27,11,53,12.50
2013,03,27,11,54,12.50
2013,03,27,11,55,12.50
2013,03,27,11,56,12.60
2013,03,27,11,57,12.60
2013,03,27,11,58,12.70
2013,03,27,11,59,12.80
2013,03,27,12,00,12.90
2013,03,27,12,01,12.90
2013,03,27,12,02,12.80
2013,03,27,12,03,12.80
2013,03,27,12,04,12.80
2013,03,27,12,05,12.80
2013,03,27,12,06,12.80
2013,03,27,12,07,12.80
2013,03,27,12,08,12.80
2013,03,27,12,09,12.80
2013,03,27,12,10,12.70
2013,03,27,12,11,12.70
2013,03,27,12,12,12.60
2013,03,27,12,13,12.60
2013,03,27,12,14,12.60
2013,03,27,12,15,12.50
2013,03,27,12,16,12.50
2013,03,27,12,17,12.50
2013,03,27,12,18,12.50
2013,03,27,12,19,12.40
2013,03,27,12,20,12.40
2013,03,27,12,21,12.50
2013,03,27,12,22,12.50
2013,03,27,12,23,12.50
2013,03,27,12,24,12.50
2013,03,27,12,25,12.60
2013,03,27,12,26,12.60
2013,03,27,12,27,12.60
2013,03,27,12,28,12.60
2013,03,27,12,29,12.50
2013,03,27,12,30,12.50
2013,03,27,12,31,12.40
2013,03,27,12,32,12.40
2013,03,27,12,33,12.30
2013,03,27,12,34,12.30
2013,03,27,12,35,12.30
2013,03,27,12,36,12.30
2013,03,27,12,37,12.20
2013,03,27,12,38,12.20
2013,03,27,12,39,12.30
2013,03,27,12,40,12.30
2013,03,27,12,41,12.30
2013,03,27,12,42,12.30
2013,03,27,12,43,12.30
2013,03,27,12,44,12.30
2013,03,27,12,45,12.30
2013,03,27,12,46,12.30
2013,03,27,12,47,12.20
2013,03,27,12,48,12.10
2013,03,27,12,49,12.00
2013,03,27,12,50,11.90
2013,03,27,12,51,11.90
2013,03,27,12,52,12.00
2013,03,27,12,53,12.10
2013,03,27,12,54,12.10
2013,03,27,12,55,12.20
2013,03,27,12,56,12.30
2013,03,27,12,57,12.30
2013,03,27,12,58,12.30
2013,03,27,12,59,12.30
2013,03,27,13,00,12.30
2013,03,27,13,01,12.30
2013,03,27,13,02,12.30
2013,03,27,13,03,12.30
2013,03,27,13,04,12.30
2013,03,27,13,05,12.20
2013,03,27,13,06,12.30
2013,03,27,13,07,12.30
2013,03,27,13,08,12.30
2013,03,27,13,09,12.40
2013,03,27,13,10,12.40
2013,03,27,13,11,12.30
2013,03,27,13,12,12.20
2013,03,27,13,13,12.10
2013,03,27,13,14,12.00
2013,03,27,13,15,12.00
2013,03,27,13,16,12.00
2013,03,27,13,17,12.00
2013,03,27,13,18,12.00
2013,03,27,13,19,12.00
2013,03,27,13,20,12.00
2013,03,27,13,21,12.00
2013,03,27,13,22,11.90
2013,03,27,13,23,11.80
2013,03,27,13,24,11.80
2013,03,27,13,25,11.70
2013,03,27,13,26,11.70
2013,03,27,13,27,11.60
2013,03,27,13,28,11.60
2013,03,27,13,29,11.60
2013,03,27,13,30,11.60
2013,03,27,13,31,11.60
2013,03,27,13,32,11.60
2013,03,27,13,33,11.70
2013,03,27,13,34,11.80
2013,03,27,13,35,11.90
2013,03,27,13,36,12.00
2013,03,27,13,37,12.10
2013,03,27,13,38,12.20
2013,03,27,13,39,12.20
2013,03,27,13,40,12.20
2013,03,27,13,41,12.20
2013,03,27,13,42,12.20
2013,03,27,13,43,12.10
2013,03,27,13,44,12.10
2013,03,27,13,45,12.10
2013,03,27,13,46,12.20
2013,03,27,13,47,12.20
2013,03,27,13,48,12.30
2013,03,27,13,49,12.30
2013,03,27,13,50,12.30
2013,03,27,13,51,12.30
2013,03,27,13,52,12.40
2013,03,27,13,53,12.60
2013,03,27,13,54,12.70
2013,03,27,13,55,12.80
2013,03,27,13,56,12.90
2013,03,27,13,57,13.00
2013,03,27,13,58,13.00
2013,03,27,13,59,13.00
2013,03,27,14,00,13.00
2013,03,27,14,01,13.10
2013,03,27,14,02,13.10
2013,03,27,14,03,13.10
2013,03,27,14,04,13.10
2013,03,27,14,05,13.10
2013,03,27,14,06,13.10
2013,03,27,14,07,13.30
2013,03,27,14,08,13.40
2013,03,27,14,09,13.60
2013,03,27,14,10,13.70
2013,03,27,14,11,13.70
2013,03,27,14,12,13.70
2013,03,27,14,13,13.70
2013,03,27,14,14,13.60
2013,03,27,14,15,13.50
2013,03,27,14,16,13.50
2013,03,27,14,17,13.30
2013,03,27,14,18,13.30
2013,03,27,14,19,13.20
2013,03,27,14,20,13.10
2013,03,27,14,21,13.10
2013,03,27,14,22,13.20
2013,03,27,14,23,13.20
2013,03,27,14,24,13.30
2013,03,27,14,25,13.30
2013,03,27,14,26,13.40
2013,03,27,14,27,13.50
2013,03,27,14,28,13.60
2013,03,27,14,29,13.60
2013,03,27,14,30,13.50
2013,03,27,14,31,13.50
2013,03,27,14,32,13.50
2013,03,27,14,33,13.50
2013,03,27,14,34,13.50
2013,03,27,14,35,13.60
2013,03,27,14,36,13.70
2013,03,27,14,37,13.70
2013,03,27,14,38,13.70
2013,03,27,14,39,13.60
2013,03,27,14,40,13.60
2013,03,27,14,41,13.60
2013,03,27,14,42,13.60
2013,03,27,14,43,13.60
2013,03,27,14,44,13.60
2013,03,27,14,45,13.50
2013,03,27,14,46,13.40
2013,03,27,14,47,13.40
2013,03,27,14,48,13.30
2013,03,27,14,49,13.30
2013,03,27,14,50,13.30
2013,03,27,14,51,13.20
2013,03,27,14,52,13.20
2013,03,27,14,53,13.10
2013,03,27,14,54,13.10
2013,03,27,14,55,13.10
2013,03,27,14,56,13.20
2013,03,27,14,57,13.30
2013,03,27,14,58,13.40
2013,03,27,14,59,13.50
2013,03,27,15,00,13.70
2013,03,27,15,01,13.80
2013,03,27,15,02,13.80
2013,03,27,15,03,13.80
2013,03,27,15,04,13.90
2013,03,27,15,05,13.90
2013,03,27,15,06,14.00
2013,03,27,15,07,14.10
2013,03,27,15,08,14.20
2013,03,27,15,09,14.20
2013,03,27,15,10,14.10
2013,03,27,15,11,14.10
2013,03,27,15,12,14.10
2013,03,27,15,13,14.10
2013,03,27,15,14,14.10
2013,03,27,15,15,14.10
2013,03,27,15,16,14.00
2013,03,27,15,17,13.90
2013,03,27,15,18,13.80
2013,03,27,15,19,13.70
2013,03,27,15,20,13.70
2013,03,27,15,21,13.70
2013,03,27,15,22,13.70
2013,03,27,15,23,13.70
2013,03,27,15,24,13.80
2013,03,27,15,25,13.80
2013,03,27,15,26,13.80
2013,03,27,15,27,13.80
2013,03,27,15,28,13.70
2013,03,27,15,29,13.70
2013,03,27,15,30,13.70
2013,03,27,15,31,13.70
2013,03,27,15,32,13.80
2013,03,27,15,33,13.90
2013,03,27,15,34,13.80
2013,03,27,15,35,13.70
2013,03,27,15,36,13.70
2013,03,27,15,37,13.70
2013,03,27,15,38,13.70
2013,03,27,15,39,13.80
2013,03,27,15,40,13.80
2013,03,27,15,41,13.80
2013,03,27,15,42,13.60
2013,03,27,15,43,13.50
2013,03,27,15,44,13.40
2013,03,27,15,45,13.30
2013,03,27,15,46,13.20
2013,03,27,15,47,13.10
2013,03,27,15,48,13.00
2013,03,27,15,49,12.80
2013,03,27,15,50,12.80
2013,03,27,15,51,12.70
2013,03,27,15,52,12.70
2013,03,27,15,53,12.60
2013,03,27,15,54,12.60
2013,03,27,15,55,12.70
2013,03,27,15,56,12.80
2013,03,27,15,57,12.80
2013,03,27,15,58,12.90
2013,03,27,15,59,13.00
2013,03,27,16,00,13.00
2013,03,27,16,01,13.00
2013,03,27,16,02,13.00
2013,03,27,16,03,13.00
2013,03,27,16,04,13.00
2013,03,27,16,05,13.00
2013,03,27,16,06,13.00
2013,03,27,16,07,12.90
2013,03,27,16,08,13.00
2013,03,27,16,09,13.00
2013,03,27,16,10,13.00
2013,03,27,16,11,12.90
2013,03,27,16,12,12.90
2013,03,27,16,13,12.80
2013,03,27,16,14,12.70
2013,03,27,16,15,12.60
2013,03,27,16,16,12.60
2013,03,27,16,17,12.60
2013,03,27,16,18,12.50
2013,03,27,16,19,12.40
2013,03,27,16,20,12.40
2013,03,27,16,21,12.30
2013,03,27,16,22,12.30
2013,03,27,16,23,12.30
2013,03,27,16,24,12.20
2013,03,27,16,25,12.10
2013,03,27,16,26,12.10
2013,03,27,16,27,12.10
2013,03,27,16,28,12.00
2013,03,27,16,29,12.00
2013,03,27,16,30,12.00
2013,03,27,16,31,12.00
2013,03,27,16,32,12.00
2013,03,27,16,33,12.00
2013,03,27,16,34,12.00
2013,03,27,16,35,12.10
2013,03,27,16,36,12.10
2013,03,27,16,37,12.20
2013,03,27,16,38,12.20
2013,03,27,16,39,12.20
2013,03,27,16,40,12.20
2013,03,27,16,41,12.10
2013,03,27,16,42,12.00
2013,03,27,16,43,11.90
2013,03,27,16,44,11.80
2013,03,27,16,45,11.70
2013,03,27,16,46,11.70
2013,03,27,16,47,11.60
2013,03,27,16,48,11.60
2013,03,27,16,49,11.60
2013,03,27,16,50,11.40
2013,03,27,16,51,11.40
2013,03,27,16,52,11.40
2013,03,27,16,53,11.40
2013,03,27,16,54,11.40
2013,03,27,16,55,11.30
2013,03,27,16,56,11.30
2013,03,27,16,57,11.30
2013,03,27,16,58,11.30
2013,03,27,16,59,11.20
2013,03,27,17,00,11.20
2013,03,27,17,01,11.10
2013,03,27,17,02,11.10
2013,03,27,17,03,11.10
2013,03,27,17,04,11.10
2013,03,27,17,05,11.10
2013,03,27,17,06,11.10
2013,03,27,17,07,11.10
2013,03,27,17,08,11.10
2013,03,27,17,09,11.10
2013,03,27,17,10,11.10
2013,03,27,17,11,11.10
2013,03,27,17,12,11.10
2013,03,27,17,13,11.10
2013,03,27,17,14,11.00
2013,03,27,17,15,10.90
2013,03,27,17,16,10.90
2013,03,27,17,17,10.90
2013,03,27,17,18,10.90
2013,03,27,17,19,10.90
2013,03,27,17,20,10.90
2013,03,27,17,21,10.90
2013,03,27,17,22,10.90
2013,03,27,17,23,10.90
2013,03,27,17,24,10.90
2013,03,27,17,25,10.90
2013,03,27,17,26,10.90
2013,03,27,17,27,10.80
2013,03,27,17,28,10.80
2013,03,27,17,29,10.90
2013,03,27,17,30,10.90
2013,03,27,17,31,10.90
2013,03,27,17,32,10.90
2013,03,27,17,33,10.90
2013,03,27,17,34,10.90
2013,03,27,17,35,10.90
2013,03,27,17,36,10.90
2013,03,27,17,37,11.00
2013,03,27,17,38,11.10
2013,03,27,17,39,11.10
2013,03,27,17,40,11.10
2013,03,27,17,41,11.20
2013,03,27,17,42,11.20
2013,03,27,17,43,11.20
2013,03,27,17,44,11.10
2013,03,27,17,45,11.10
2013,03,27,17,46,11.10